Wind_Speed
82 92 92 94 94 94 101 104 103 101 98 99 101 103 100 98 98 95 92 88 87 81 76 70 73 72 72 76 73 77 79 76 77 85 90 93 99 103 104 103 102 102 96 94 93 94 95
93 96 96 99 103 107 109 107 104 103 100 98 95 93 93 93 91 90 86 85 83 80 74 70 70 69 72 74 73 76 74 74 71 75 83 86 91 95 98 100 102 102 98 96 95 94 90
98 105 115 111 110 111 110 105 99 93 91 88 87 86 85 82 79 77 76 73 70 72 69 67 66 68 67 68 70 71 70 65 67 69 74 82 86 86 90 94 96 98 101 99 95 92 92
112 116 111 107 102 100 95 85 82 81 80 79 80 79 78 78 74 69 67 65 64 65 64 63 63 66 65 62 63 67 61 62 60 61 67 74 79 82 82 83 87 93 95 96 92 93 90
120 108 101 98 94 84 78 73 69 69 70 68 71 75 75 75 66 57 55 52 56 55 59 60 61 62 60 60 56 56 53 55 57 55 61 66 74 77 75 74 76 81 87 91 90 90 90
107 95 88 88 82 79 74 69 52 51 52 55 57 61 64 65 66 43 35 36 43 48 50 56 57 56 52 54 46 44 45 50 48 49 54 61 67 69 66 65 69 71 76 79 82 84 84
98 96 93 94 88 85 84 80 69 58 47 45 52 58 59 52 45 30 24 36 42 44 46 49 54 50 49 41 36 37 39 40 39 43 47 54 56 57 59 61 61 63 64 67 72 72 74
90 94 97 100 95 89 77 71 69 58 44 37 36 35 33 33 28 21 22 25 32 35 40 42 41 44 37 31 33 33 33 34 36 38 42 44 49 50 52 53 53 55 56 58 64 66 66
84 89 92 96 95 88 79 69 65 55 44 33 23 19 18 16 13 12 13 16 24 29 33 34 33 30 34 33 30 27 27 27 32 37 38 39 41 42 44 46 47 48 51 51 54 54 57
86 84 89 90 91 85 77 67 62 50 40 33 26 19 12 6 1 6 11 15 19 22 25 27 30 33 30 30 28 25 24 26 28 31 34 35 30 32 35 36 40 41 43 46 48 49 52
88 83 85 91 93 92 82 67 58 53 44 34 25 18 13 11 13 14 16 18 20 25 28 29 28 31 30 29 25 23 22 24 25 23 23 22 25 27 27 33 35 36 38 39 42 46 49
92 87 87 90 100 100 91 83 64 53 51 42 33 27 20 20 21 23 25 27 29 31 31 32 31 28 26 24 24 22 21 18 18 17 17 19 22 23 25 26 27 31 36 41 45 47 48
105 89 86 87 100 101 93 82 77 57 55 50 48 37 30 24 21 24 27 31 33 32 33 30 28 28 26 24 23 21 18 15 13 15 17 18 20 21 21 22 24 26 28 30 32 33 34
113 94 87 89 99 103 98 87 78 71 54 62 63 56 46 39 31 30 32 32 31 32 32 31 31 30 28 24 20 16 14 12 14 13 15 17 17 13 13 15 17 18 17 17 19 20 19
110 96 88 89 94 103 105 96 84 77 72 64 65 67 57 52 49 46 41 39 37 36 34 32 30 25 22 20 17 15 13 14 12 13 11 9 7 9 11 11 10 9 11 12 15 17 16
108 105 90 85 91 99 101 97 88 81 72 64 65 68 59 54 50 48 46 38 34 31 29 28 26 24 20 17 15 13 14 11 10 7 6 6 8 8 8 9 12 12 15 20 21 23 29
101 101 92 84 85 89 96 96 92 84 77 68 65 65 55 50 45 39 38 34 29 27 25 23 20 18 15 15 13 14 11 9 9 10 9 7 10 11 14 17 16 19 22 27 25 29 34
98 104 95 86 79 84 88 92 90 86 79 73 69 64 53 45 39 34 28 25 23 22 20 19 18 19 18 18 17 14 14 14 14 13 11 13 13 15 18 22 21 22 27 30 33 42 44
97 102 94 88 75 73 78 81 84 82 82 74 69 64 57 51 44 36 30 26 23 22 23 24 25 25 23 21 18 20 20 19 16 13 10 13 11 15 22 26 25 26 29 33 42 54 56
96 97 92 85 79 67 67 70 73 77 76 75 74 67 60 55 51 47 40 34 30 28 27 27 27 27 26 25 24 24 26 21 18 15 15 17 13 17 23 25 28 27 31 35 45 64 68
93 93 84 89 85 71 60 61 66 67 71 71 71 69 62 58 56 54 52 46 39 33 31 29 28 27 28 29 31 29 28 23 21 19 17 16 15 19 23 27 30 30 33 36 41 68 68
86 90 80 94 85 79 65 55 55 59 62 65 68 66 64 58 53 53 56 53 47 41 35 30 28 28 26 28 31 31 29 29 30 26 24 21 19 13 19 25 29 29 30 36 35 54 74
81 82 82 80 85 89 78 60 47 47 50 54 55 60 60 55 55 54 53 49 48 43 40 37 35 33 30 29 27 28 31 30 30 32 31 26 25 22 18 14 23 25 26 30 33 38 63
74 79 81 78 79 86 89 75 60 43 40 43 48 50 51 53 49 51 52 49 47 46 45 45 41 37 35 34 33 33 31 31 28 30 31 31 31 30 27 24 22 15 14 19 21 20 33
72 75 78 75 66 81 78 78 69 60 40 33 36 41 43 43 45 46 45 44 43 43 43 43 42 42 40 39 39 39 39 38 36 36 37 35 34 34 32 29 30 30 27 24 19 16 17
69 71 72 75 75 77 78 71 70 58 54 37 27 29 32 34 34 37 39 38 38 38 36 36 38 40 39 39 37 36 37 37 37 37 36 36 36 36 36 34 34 33 33 33 31 28 27
64 70 65 73 74 75 77 68 63 67 58 50 34 24 23 26 30 28 29 32 31 29 29 29 29 30 31 31 31 32 32 32 31 31 31 31 31 31 30 31 30 29 28 28 27 24 21
66 68 65 71 68 70 69 71 68 67 60 53 47 31 22 19 22 26 26 24 24 23 21 20 20 21 21 21 21 22 22 23 22 23 24 23 23 22 22 21 20 19 18 18 18 17 17
58 65 66 67 64 70 69 73 60 62 63 51 50 42 30 23 17 19 22 23 21 21 20 15 11 11 11 12 12 14 14 14 14 13 13 13 12 11 10 10 9 8 7 6 6 6 5
Wind_Direction
332 330 328 322 318 314 311 309 305 302 296 290 287 287 285 282 278 276 273 271 269 266 263 261 258 257 256 254 250 251 248 250 249 245 244 244 243 242 241 240 240 240 243 243 243 243 243
334 333 328 321 316 311 307 303 300 297 295 294 290 287 285 282 278 276 273 270 267 265 262 259 257 254 254 255 250 250 250 250 248 247 244 244 243 242 242 242 242 242 242 244 245 245 244
336 332 328 320 313 310 308 306 303 299 296 295 291 287 285 282 279 276 274 270 266 264 259 255 255 253 251 251 251 250 250 249 250 250 245 243 243 244 244 244 243 243 243 244 249 249 247
336 329 324 320 316 315 313 309 304 302 298 293 288 285 282 280 278 276 272 268 263 259 255 251 249 252 249 247 249 252 249 248 250 249 245 242 243 245 245 245 243 243 245 246 249 249 251
337 333 327 324 324 325 322 317 312 304 299 293 287 284 282 281 283 278 270 260 254 252 248 244 245 245 246 246 247 248 250 248 250 247 243 242 242 243 245 246 245 244 245 247 250 250 252
341 342 339 336 336 335 336 334 327 315 303 292 283 280 280 283 290 286 269 252 247 243 242 238 239 241 242 244 239 242 244 246 245 241 240 238 240 243 246 248 247 246 248 249 251 251 252
344 357 358 355 347 342 339 337 336 329 316 298 285 282 282 282 282 280 248 233 231 231 228 233 230 232 236 234 229 234 237 238 238 236 236 238 242 246 246 248 249 250 250 249 251 252 252
351 359 1 358 354 348 344 339 337 334 326 310 296 293 291 281 277 261 239 228 226 223 223 224 225 227 227 222 224 226 228 231 233 233 236 238 241 243 245 248 250 252 253 252 249 249 251
354 7 6 5 360 357 349 347 347 342 338 336 321 312 296 282 269 246 229 210 208 206 214 218 216 207 207 211 214 213 216 221 226 230 234 237 238 242 244 247 249 251 248 249 250 249 250
358 9 12 10 6 4 360 358 359 357 353 350 351 348 337 343 70 151 162 175 180 185 188 187 188 195 193 198 199 198 201 212 220 225 229 234 238 240 241 242 242 242 246 247 249 251 253
3 9 15 15 13 9 13 11 11 8 11 12 13 18 34 69 94 108 122 136 142 155 167 171 174 177 184 182 183 189 199 207 213 215 225 229 233 234 234 235 238 242 248 253 254 254 254
6 8 19 15 18 17 14 18 20 26 28 26 34 39 55 82 100 110 122 130 139 148 150 154 163 165 163 163 170 180 192 195 203 209 223 224 228 231 230 237 242 245 245 248 252 254 255
8 10 17 19 19 21 21 21 25 31 41 45 48 48 51 64 86 105 121 130 131 139 142 143 141 140 147 151 159 173 181 188 201 206 214 222 227 233 239 246 249 251 254 255 256 257 254
6 9 16 22 20 22 22 25 28 36 46 55 57 56 58 64 72 85 96 103 105 114 119 122 127 133 139 149 156 159 167 180 195 204 211 227 237 237 233 235 232 233 237 238 243 240 227
9 11 14 23 20 23 22 22 28 33 36 48 59 59 61 66 72 75 80 87 97 106 113 117 120 125 134 142 150 150 161 193 202 211 212 223 215 202 207 212 223 231 219 207 211 202 175
6 9 12 20 26 22 23 24 24 30 33 35 48 56 57 58 64 73 78 81 88 96 103 110 113 119 130 142 148 158 183 182 189 182 167 160 162 167 179 179 174 178 161 153 163 166 154
9 10 14 16 26 24 22 23 27 28 28 32 36 46 45 52 58 64 75 84 88 93 98 103 107 109 118 124 139 142 133 130 131 114 112 112 145 150 164 160 161 147 139 136 145 148 147
9 12 13 13 22 27 23 20 24 27 30 31 34 38 40 41 46 53 58 68 77 83 88 92 97 103 104 110 104 108 114 110 95 98 101 126 131 140 151 142 141 135 130 129 136 147 147
10 7 12 18 14 28 29 23 22 24 27 31 38 37 37 38 40 45 51 56 64 71 78 84 90 93 95 97 102 105 101 91 90 99 108 121 126 144 146 140 135 137 131 129 137 151 149
8 10 13 15 18 17 28 30 24 25 25 29 30 34 38 41 42 44 43 47 53 62 71 79 86 92 96 96 92 94 92 89 93 90 101 114 129 135 136 139 139 138 135 132 140 156 151
5 7 9 14 15 19 19 27 29 26 24 27 28 28 33 37 42 46 45 43 48 53 57 62 75 87 88 90 87 86 89 87 92 90 102 116 120 147 144 144 141 136 138 133 146 161 164
359 4 14 10 14 16 18 18 28 28 27 22 25 28 28 34 37 40 45 45 43 46 49 57 62 73 82 89 93 94 92 94 93 93 90 104 104 107 146 150 148 146 139 136 139 164 172
354 359 5 15 17 17 15 16 16 28 28 25 22 23 28 29 35 41 44 45 50 50 52 56 59 67 74 79 84 95 99 102 103 97 92 95 97 99 104 129 150 150 149 145 148 152 180
351 351 357 6 11 5 7 9 12 12 27 27 24 21 23 25 31 37 40 44 49 52 55 58 59 62 70 77 84 89 92 95 99 102 102 102 102 102 102 106 110 119 141 134 131 147 174
346 351 351 357 358 8 9 7 11 11 7 24 30 23 18 20 23 27 34 41 45 50 55 61 63 65 68 70 75 81 85 89 93 96 100 104 105 105 106 108 112 114 115 116 123 117 120
346 347 352 350 356 360 360 0 3 9 9 2 16 28 23 16 18 20 21 24 32 38 45 55 64 69 72 74 75 77 80 85 86 87 87 88 91 94 95 96 97 100 104 107 109 112 117
345 344 346 349 352 354 358 3 8 6 5 5 358 2 21 17 12 11 13 13 14 24 33 41 50 56 62 65 68 71 73 72 78 84 89 90 90 91 92 90 90 90 90 92 95 98 100
341 342 340 342 345 353 356 359 355 358 4 11 3 356 350 8 10 4 4 9 8 3 12 23 35 43 54 62 69 71 69 68 66 68 71 77 80 81 84 88 91 94 100 102 108 114 119
338 335 338 341 341 345 348 350 359 358 354 6 10 2 352 336 347 351 352 353 2 2 352 354 13 35 50 57 57 59 66 69 70 68 71 74 75 76 79 84 87 89 90 100 116 124 137
Height
10668 10651 10632 10614 10595 10576 10558 10540 10525 10511 10497 10484 10472 10463 10456 10451 10448 10447 10448 10450 10452 10458 10464 10468 10469 10473 10479 10482 10495 10496 10501 10509 10515 10521 10529 10537 10545 10556 10566 10576 10586 10595 10602 10612 10615 10622 10630
10654 10633 10611 10589 10568 10547 10527 10509 10491 10474 10460 10446 10435 10426 10418 10413 10412 10411 10416 10419 10424 10430 10439 10444 10448 10453 10458 10461 10473 10476 10484 10491 10497 10503 10510 10519 10525 10534 10546 10556 10567 10575 10587 10590 10594 10598 10610
10636 10611 10585 10560 10535 10511 10489 10471 10455 10440 10426 10413 10402 10393 10386 10381 10382 10381 10384 10389 10397 10403 10413 10423 10429 10430 10438 10445 10453 10458 10467 10475 10482 10487 10493 10499 10507 10516 10527 10536 10546 10557 10565 10573 10571 10584 10592
10614 10586 10556 10525 10499 10477 10455 10437 10419 10406 10392 10379 10367 10359 10354 10353 10353 10355 10359 10365 10372 10379 10388 10399 10407 10411 10418 10428 10439 10441 10452 10460 10467 10471 10475 10482 10490 10498 10507 10518 10528 10535 10546 10555 10561 10568 10572
10590 10556 10526 10497 10469 10446 10426 10409 10395 10380 10364 10350 10338 10328 10325 10322 10325 10332 10333 10341 10348 10358 10365 10376 10386 10393 10403 10409 10423 10430 10439 10447 10450 10456 10461 10469 10474 10482 10491 10501 10512 10521 10530 10537 10543 10549 10554
10570 10539 10503 10475 10448 10422 10398 10382 10370 10359 10343 10327 10316 10308 10305 10304 10299 10308 10314 10323 10329 10338 10349 10356 10369 10376 10387 10395 10408 10416 10427 10432 10437 10443 10449 10455 10461 10469 10480 10491 10498 10506 10513 10521 10525 10531 10537
10555 10521 10488 10459 10429 10404 10376 10355 10340 10329 10318 10307 10298 10293 10291 10288 10285 10290 10297 10301 10309 10322 10333 10341 10352 10365 10372 10386 10397 10406 10415 10421 10426 10432 10439 10445 10455 10463 10469 10476 10484 10492 10498 10502 10508 10514 10521
10545 10512 10481 10454 10428 10399 10372 10351 10330 10313 10301 10292 10284 10278 10275 10272 10273 10279 10285 10292 10300 10313 10321 10331 10344 10355 10368 10381 10390 10398 10405 10412 10418 10426 10432 10439 10446 10453 10459 10465 10472 10478 10484 10489 10487 10494 10503
10538 10507 10480 10452 10422 10393 10368 10344 10320 10302 10289 10281 10275 10271 10267 10267 10269 10271 10278 10286 10294 10305 10315 10326 10338 10352 10364 10373 10382 10390 10399 10407 10412 10418 10424 10431 10437 10443 10449 10456 10462 10466 10467 10474 10478 10487 10491
10534 10504 10476 10451 10425 10397 10368 10341 10318 10301 10289 10278 10271 10267 10265 10265 10267 10270 10275 10284 10293 10302 10313 10325 10336 10348 10359 10368 10378 10387 10395 10400 10407 10411 10416 10423 10432 10437 10442 10448 10451 10455 10461 10465 10469 10475 10480
10533 10505 10476 10452 10427 10398 10371 10348 10324 10305 10292 10283 10276 10271 10268 10269 10269 10274 10280 10287 10294 10303 10313 10324 10335 10345 10355 10367 10377 10384 10391 10397 10401 10408 10414 10421 10426 10430 10438 10439 10445 10451 10455 10460 10462 10463 10465
10531 10507 10476 10457 10431 10406 10380 10357 10335 10318 10303 10295 10288 10282 10278 10277 10278 10282 10287 10293 10299 10309 10319 10328 10337 10349 10360 10368 10376 10383 10389 10395 10402 10407 10411 10416 10422 10427 10432 10437 10443 10446 10446 10446 10448 10451 10453
10535 10511 10485 10464 10440 10417 10398 10376 10356 10337 10322 10311 10303 10299 10296 10294 10294 10295 10299 10304 10311 10320 10329 10338 10347 10355 10363 10371 10377 10383 10389 10396 10401 10406 10411 10415 10420 10426 10431 10435 10435 10436 10438 10441 10442 10443 10445
10542 10520 10494 10471 10449 10427 10408 10392 10375 10361 10343 10329 10321 10319 10319 10319 10319 10319 10321 10325 10329 10335 10342 10349 10355 10361 10368 10375 10380 10386 10393 10398 10401 10407 10412 10414 10418 10424 10424 10426 10428 10428 10432 10434 10434 10437 10441
10554 10531 10508 10484 10465 10443 10422 10405 10392 10381 10371 10359 10342 10334 10339 10339 10339 10339 10342 10344 10347 10350 10355 10359 10364 10370 10376 10380 10386 10392 10397 10398 10403 10406 10410 10414 10417 10419 10421 10423 10426 10428 10430 10432 10431 10433 10441
10565 10544 10522 10499 10479 10462 10446 10432 10417 10403 10394 10390 10371 10356 10361 10361 10360 10357 10357 10363 10366 10367 10370 10371 10375 10380 10383 10388 10393 10397 10398 10401 10403 10407 10410 10413 10416 10419 10421 10424 10427 10428 10431 10433 10432 10436 10443
10577 10558 10538 10519 10496 10484 10467 10453 10439 10427 10416 10405 10394 10379 10385 10384 10382 10383 10377 10378 10380 10380 10381 10384 10387 10390 10392 10395 10397 10399 10400 10403 10406 10409 10411 10414 10416 10419 10423 10426 10428 10431 10434 10435 10436 10442 10448
10588 10572 10553 10534 10517 10499 10489 10474 10461 10452 10440 10428 10418 10409 10407 10405 10402 10399 10399 10396 10394 10394 10394 10394 10395 10397 10398 10400 10400 10403 10406 10407 10409 10411 10414 10416 10418 10423 10426 10428 10431 10434 10438 10441 10440 10446 10455
10601 10583 10568 10551 10534 10518 10506 10498 10484 10471 10459 10452 10440 10435 10430 10424 10420 10416 10413 10409 10407 10406 10405 10404 10403 10403 10404 10405 10408 10409 10410 10411 10414 10417 10420 10421 10423 10426 10428 10432 10435 10439 10443 10447 10449 10453 10463
10616 10595 10580 10566 10550 10535 10522 10512 10505 10492 10482 10471 10464 10457 10452 10444 10437 10431 10427 10423 10419 10417 10415 10413 10413 10412 10413 10414 10414 10413 10414 10418 10420 10423 10425 10426 10428 10432 10434 10438 10441 10443 10447 10451 10455 10462 10467
10623 10610 10594 10581 10565 10550 10538 10525 10517 10509 10501 10492 10483 10476 10469 10461 10453 10446 10441 10436 10432 10429 10425 10423 10422 10423 10423 10420 10419 10420 10422 10426 10427 10429 10432 10434 10435 10437 10439 10442 10445 10448 10451 10456 10461 10469 10471
10632 10623 10605 10593 10579 10564 10552 10542 10531 10522 10516 10511 10506 10497 10489 10480 10471 10462 10454 10449 10445 10441 10439 10437 10435 10432 10432 10430 10429 10430 10432 10435 10437 10438 10439 10440 10440 10442 10445 10447 10449 10452 10457 10459 10467 10471 10474
10640 10629 10619 10605 10591 10579 10567 10556 10547 10536 10530 10525 10521 10514 10509 10500 10490 10482 10475 10470 10464 10461 10457 10453 10450 10446 10445 10444 10443 10440 10441 10444 10446 10447 10448 10449 10448 10450 10453 10455 10456 10458 10461 10463 10466 10472 10476
10645 10635 10626 10616 10604 10591 10579 10568 10558 10551 10541 10534 10530 10527 10522 10518 10510 10502 10495 10489 10482 10478 10473 10468 10466 10464 10460 10458 10458 10455 10454 10453 10456 10455 10454 10455 10456 10457 10460 10463 10464 10467 10468 10468 10472 10475 10478
10648 10639 10632 10622 10614 10604 10592 10580 10568 10559 10554 10545 10537 10535 10532 10528 10525 10519 10512 10507 10503 10496 10490 10486 10482 10479 10476 10474 10472 10471 10471 10468 10469 10467 10467 10467 10468 10467 10467 10469 10470 10472 10474 10476 10479 10481 10483
10651 10642 10635 10627 10620 10612 10601 10590 10578 10568 10559 10553 10548 10541 10538 10537 10533 10529 10526 10521 10516 10511 10506 10501 10496 10492 10489 10488 10489 10487 10485 10484 10482 10482 10481 10480 10481 10481 10480 10480 10480 10481 10483 10483 10484 10486 10486
10651 10645 10637 10630 10623 10616 10607 10596 10587 10577 10567 10559 10553 10549 10543 10540 10539 10536 10533 10531 10528 10524 10520 10515 10510 10506 10502 10499 10497 10497 10497 10495 10494 10493 10491 10491 10490 10490 10489 10489 10489 10490 10491 10492 10493 10495 10495
10650 10644 10639 10633 10625 10620 10613 10606 10595 10584 10575 10564 10556 10551 10549 10544 10541 10540 10539 10536 10534 10532 10528 10524 10520 10517 10514 10512 10509 10506 10504 10503 10503 10501 10499 10499 10498 10498 10498 10498 10499 10500 10500 10500 10502 10502 10503
10646 10642 10637 10633 10627 10621 10614 10607 10599 10590 10578 10570 10561 10553 10548 10547 10543 10541 10541 10540 10538 10536 10534 10531 10527 10523 10520 10517 10515 10512 10511 10509 10508 10508 10506 10505 10505 10505 10504 10503 10503 10503 10503 10503 10503 10504 10504